Tiempo cada hora Barninek

Hoy, 15 Mayo, Sábado

Tiempo Temperatura Precipitaciones Viento Presión Humedad
00:00 +10°C° 0 mm 1 mps 753 mmHg 88%
01:00 +10°C° 0 mm 1 mps 753 mmHg 88%
02:00 +9°C° 0.1 mm 2 mps 753 mmHg 90%
03:00 +9°C° 0.1 mm 3 mps 753 mmHg 91%
04:00 +8°C° 0.1 mm 4 mps 754 mmHg 93%
05:00 +8°C° 0.6 mm 4 mps 754 mmHg 94%
06:00 +8°C° 0.6 mm 4 mps 754 mmHg 95%
07:00 +8°C° 0.6 mm 4 mps 754 mmHg 96%
08:00 +10°C° 0.1 mm 4 mps 755 mmHg 88%
09:00 +10°C° 0.1 mm 5 mps 755 mmHg 80%
10:00 +13°C° 0.1 mm 5 mps 755 mmHg 73%
11:00 +13°C° 0 mm 4 mps 755 mmHg 70%
12:00 +14°C° 0 mm 3 mps 755 mmHg 66%
13:00 +14°C° 0 mm 3 mps 754 mmHg 63%
14:00 +16°C° 0 mm 2 mps 754 mmHg 63%
15:00 +16°C° 0 mm 2 mps 754 mmHg 63%
16:00 +16°C° 0 mm 2 mps 754 mmHg 63%
17:00 +15°C° 0.3 mm 2 mps 754 mmHg 70%
18:00 +14°C° 0.3 mm 2 mps 753 mmHg 76%
19:00 +14°C° 0.3 mm 2 mps 753 mmHg 82%
20:00 +13°C° 0.5 mm 2 mps 753 mmHg 84%
21:00 +13°C° 0.5 mm 2 mps 753 mmHg 86%
22:00 +11°C° 0.5 mm 3 mps 753 mmHg 88%
23:00 +11°C° 0 mm 3 mps 753 mmHg 90%

Mañana, 16 Mayo, Domingo

Tiempo Temperatura Precipitaciones Viento Presión Humedad
00:00 +11°C° 0 mm 4 mps 753 mmHg 91%
01:00 +10°C° 0 mm 4 mps 753 mmHg 93%
02:00 +10°C° 0.1 mm 4 mps 753 mmHg 93%
03:00 +10°C° 0.1 mm 4 mps 753 mmHg 93%
04:00 +10°C° 0.1 mm 4 mps 753 mmHg 93%
05:00 +10°C° 0 mm 4 mps 753 mmHg 91%
06:00 +11°C° 0 mm 4 mps 753 mmHg 90%
07:00 +11°C° 0 mm 4 mps 753 mmHg 88%
08:00 +12°C° 0.1 mm 4 mps 753 mmHg 80%
09:00 +14°C° 0.1 mm 4 mps 753 mmHg 72%
10:00 +15°C° 0.1 mm 4 mps 753 mmHg 64%
11:00 +16°C° 0.1 mm 3 mps 753 mmHg 62%
12:00 +16°C° 0.1 mm 3 mps 753 mmHg 61%
13:00 +17°C° 0.1 mm 2 mps 752 mmHg 59%
14:00 +16°C° 0.2 mm 2 mps 752 mmHg 61%
15:00 +16°C° 0.2 mm 2 mps 752 mmHg 64%
16:00 +16°C° 0.2 mm 2 mps 752 mmHg 66%
17:00 +15°C° 0.1 mm 2 mps 752 mmHg 72%
18:00 +14°C° 0.1 mm 2 mps 752 mmHg 77%
19:00 +14°C° 0.1 mm 2 mps 752 mmHg 82%
20:00 +13°C° 0 mm 2 mps 752 mmHg 84%
21:00 +12°C° 0 mm 2 mps 752 mmHg 87%
22:00 +10°C° 0 mm 2 mps 752 mmHg 90%
23:00 +9°C° 0 mm 2 mps 752 mmHg 90%

Pasado mañana, 17 Mayo, Lunes

Tiempo Temperatura Precipitaciones Viento Presión Humedad
00:00 +9°C° 0 mm 2 mps 752 mmHg 91%
01:00 +9°C° 0 mm 3 mps 752 mmHg 91%
02:00 +9°C° 0 mm 3 mps 752 mmHg 92%
03:00 +8°C° 0 mm 3 mps 752 mmHg 92%
04:00 +8°C° 0 mm 3 mps 752 mmHg 92%
05:00 +9°C° 0 mm 3 mps 752 mmHg 90%
06:00 +10°C° 0 mm 3 mps 752 mmHg 87%
07:00 +11°C° 0 mm 4 mps 752 mmHg 84%
08:00 +12°C° 0.3 mm 3 mps 752 mmHg 84%
09:00 +12°C° 0.3 mm 3 mps 752 mmHg 83%
10:00 +12°C° 0.3 mm 3 mps 752 mmHg 82%
11:00 +13°C° 0.3 mm 3 mps 752 mmHg 79%
12:00 +15°C° 0.3 mm 2 mps 752 mmHg 77%
13:00 +15°C° 0.3 mm 2 mps 752 mmHg 74%
14:00 +15°C° 0.2 mm 2 mps 752 mmHg 73%
15:00 +16°C° 0.2 mm 2 mps 752 mmHg 72%
16:00 +16°C° 0.2 mm 1 mps 752 mmHg 70%
17:00 +15°C° 0.3 mm 2 mps 752 mmHg 76%
18:00 +14°C° 0.3 mm 2 mps 752 mmHg 81%
19:00 +13°C° 0.3 mm 2 mps 752 mmHg 86%
20:00 +12°C° 0.1 mm 2 mps 752 mmHg 88%
21:00 +10°C° 0.1 mm 2 mps 752 mmHg 90%
22:00 +10°C° 0.1 mm 2 mps 752 mmHg 93%
23:00 +9°C° 0 mm 3 mps 752 mmHg 94%

18 Mayo, Martes

Tiempo Temperatura Precipitaciones Viento Presión Humedad
00:00 +9°C° 0 mm 3 mps 752 mmHg 95%
01:00 +8°C° 0 mm 3 mps 752 mmHg 95%
02:00 +8°C° 0 mm 3 mps 752 mmHg 96%
03:00 +8°C° 0 mm 3 mps 752 mmHg 96%
04:00 +7°C° 0 mm 3 mps 752 mmHg 97%
05:00 +7°C° 0 mm 4 mps 753 mmHg 96%
06:00 +8°C° 0 mm 4 mps 753 mmHg 94%
07:00 +10°C° 0 mm 4 mps 753 mmHg 93%
08:00 +10°C° 0.1 mm 4 mps 753 mmHg 92%
09:00 +10°C° 0.1 mm 5 mps 753 mmHg 92%
10:00 +10°C° 0.1 mm 5 mps 754 mmHg 91%
11:00 +10°C° 0.2 mm 6 mps 754 mmHg 87%
12:00 +11°C° 0.2 mm 6 mps 754 mmHg 83%
13:00 +11°C° 0.2 mm 7 mps 754 mmHg 78%
14:00 +11°C° 0.1 mm 6 mps 755 mmHg 77%
15:00 +13°C° 0.1 mm 6 mps 755 mmHg 75%
16:00 +13°C° 0.1 mm 5 mps 755 mmHg 73%
17:00 +12°C° 0 mm 5 mps 755 mmHg 76%
18:00 +11°C° 0 mm 4 mps 755 mmHg 79%
19:00 +10°C° 0 mm 4 mps 755 mmHg 82%
20:00 +8°C° 0 mm 4 mps 756 mmHg 86%
21:00 +8°C° 0 mm 4 mps 756 mmHg 89%
22:00 +7°C° 0 mm 5 mps 756 mmHg 92%
23:00 +7°C° 0 mm 5 mps 756 mmHg 92%

19 Mayo, Miércoles

Tiempo Temperatura Precipitaciones Viento Presión Humedad
00:00 +7°C° 0 mm 6 mps 756 mmHg 92%
01:00 +7°C° 0 mm 6 mps 756 mmHg 92%
02:00 +7°C° 0 mm 6 mps 757 mmHg 93%
03:00 +7°C° 0 mm 6 mps 757 mmHg 94%
04:00 +6°C° 0 mm 7 mps 757 mmHg 96%
05:00 +7°C° 0 mm 6 mps 757 mmHg 94%
06:00 +8°C° 0 mm 6 mps 757 mmHg 92%
07:00 +8°C° 0 mm 6 mps 758 mmHg 90%
08:00 +9°C° 0.1 mm 7 mps 758 mmHg 84%
09:00 +10°C° 0.1 mm 7 mps 758 mmHg 78%
10:00 +11°C° 0.1 mm 7 mps 759 mmHg 72%
11:00 +11°C° 0.1 mm 7 mps 759 mmHg 69%
12:00 +11°C° 0.1 mm 7 mps 759 mmHg 67%
13:00 +12°C° 0.1 mm 7 mps 759 mmHg 65%
14:00 +13°C° 0 mm 6 mps 759 mmHg 64%
15:00 +13°C° 0 mm 6 mps 759 mmHg 63%
16:00 +13°C° 0 mm 6 mps 759 mmHg 62%
17:00 +12°C° 0 mm 5 mps 759 mmHg 67%
18:00 +10°C° 0 mm 5 mps 759 mmHg 73%
19:00 +11°C° 0 mm 4 mps 759 mmHg 79%
20:00 +10°C° 0 mm 4 mps 759 mmHg 83%
21:00 +8°C° 0 mm 4 mps 759 mmHg 87%
22:00 +7°C° 0 mm 5 mps 759 mmHg 92%
23:00 +7°C° 0 mm 5 mps 759 mmHg 92%

20 Mayo, Jueves

Tiempo Temperatura Precipitaciones Viento Presión Humedad
00:00 +7°C° 0 mm 5 mps 759 mmHg 92%
01:00 +6°C° 0 mm 5 mps 759 mmHg 92%
02:00 +6°C° 0 mm 5 mps 759 mmHg 93%
03:00 +5°C° 0 mm 6 mps 759 mmHg 94%
04:00 +5°C° 0 mm 6 mps 759 mmHg 95%
05:00 +7°C° 0 mm 6 mps 759 mmHg 92%
06:00 +8°C° 0 mm 7 mps 759 mmHg 88%
07:00 +8°C° 0 mm 7 mps 759 mmHg 84%
08:00 +9°C° 0 mm 7 mps 759 mmHg 79%
09:00 +10°C° 0 mm 7 mps 759 mmHg 74%
10:00 +11°C° 0 mm 7 mps 759 mmHg 69%
11:00 +11°C° 0.1 mm 7 mps 759 mmHg 68%
12:00 +11°C° 0.1 mm 7 mps 759 mmHg 68%
13:00 +11°C° 0.1 mm 6 mps 759 mmHg 68%
14:00 +13°C° 0.1 mm 6 mps 759 mmHg 67%
15:00 +13°C° 0.1 mm 5 mps 759 mmHg 67%
16:00 +13°C° 0.1 mm 5 mps 759 mmHg 67%
17:00 +12°C° 0 mm 3 mps 758 mmHg 71%
18:00 +13°C° 0 mm 2 mps 758 mmHg 74%
19:00 +12°C° 0 mm 1 mps 757 mmHg 78%
20:00 +10°C° 0 mm 2 mps 757 mmHg 81%
21:00 +10°C° 0 mm 3 mps 757 mmHg 83%
22:00 +9°C° 0 mm 3 mps 756 mmHg 85%
23:00 +9°C° 0.1 mm 3 mps 756 mmHg 87%
Mostrar más

Necesitamos Su Consentimiento

Meteoprog y nuestros Proveedores de Servicios pueden almacenar y acceder a sus datos personales como cookies, identificadores de dispositivo u otras tecnologías similares de su dispositivo y procesar dichos datos para personalizar contenido y anuncios, además de ofrecer funciones de redes sociales y analizar el tráfico.

  • Almacenar y/o acceder a información en su dispositivo

    Se puede almacenar o acceder a cookies, identificadores de dispositivo u otra información de su dispositivo para los fines anteriormente indicados.

  • Anuncios y contenido personalizados, medición de anuncios y contenido, percepciones del público, y desarrollo de productos

    Los anuncios y el contenido pueden personalizarse en base a su perfil. Se pueden añadir más datos para personalizar mejor los anuncios y contenidos. Se puede medir el rendimiento de los anuncios y contenidos. Se puede obtener la percepción sobre el público que ha visto los anuncios y contenidos. Dichos datos pueden usarse para desarrollar o mejorar la experiencia del usuario, sistemas y software.

Al hacer clic en ‘Estoy De Acuerdo’ usted permitirá el uso de las cookies, identificadores de dispositivo, balizas web u otras tecnologías similares indicadas. Su configuración puede cambiarse desde el navegador de su dispositivo.

Para ciertos fines, los intereses legítimos pueden ser considerados por encima del consentimiento. Puede leer más sobre ello en nuestra Política de Privacidad y Cookies.